Hourly Data Report for October 21, 2014

All times are specified in Local Standard Time (LST). Add 1 hour to adjust for Daylight Saving Time where and when it is observed.

KUGAARUK CLIMATE
NUNAVUT

68°32'15.060" N
89°47'47.020" W
15.80 m
2303094
71407
NBB

Download Data

Hourly Data (October 2014)
Hourly Data Report for October 21, 2014
Temp Definition
°C
Dew Point Temp Definition
°C
Rel Hum Definition
%
Wind Dir Definition
10's deg

Wind Spd Definition
km/h
Visibility Definition
km
Stn Press Definition
kPa
Hmdx Definition


Wind Chill Definition


Weather Definition


TIME
00:00 -12.1 -13.4 90 34 2   101.15   -13 LegendNANA
01:00 -12.0 -13.4 90   0   101.08     LegendNANA
02:00 -11.4 -12.6 91 8 4   101.05   -14 LegendNANA
03:00 -11.3 -12.5 91 8 7   101.01   -16 LegendNANA
04:00 -11.5 -12.7 90 11 8   100.93   -16 LegendNANA
05:00 -11.8 -13.1 90 8 15   100.84   -19 LegendNANA
06:00 -12.1 -13.5 90 8 19   100.77   -20 LegendNANA
07:00 -12.2 -13.5 90 8 22   100.70   -21 LegendNANA
08:00 -12.0 -13.3 90 8 22   100.58   -21 LegendNANA
09:00 -11.3 -12.6 90 6 20   100.52   -20 LegendNANA
10:00 -11.2 -12.4 90 7 18   100.49   -19 LegendNANA
11:00 -10.9 -12.2 90 7 25   100.38   -20 LegendNANA
12:00 -10.5 -11.8 90 7 27   100.37   -20 LegendNANA
13:00 -10.4 -11.7 90 6 25   100.32   -19 LegendNANA
14:00 -10.0 -11.4 90 6 30   100.26   -20 LegendNANA
15:00 -10.3 -11.7 89 7 32   100.23   -20 LegendNANA
16:00 -10.3 -11.9 88 8 30   100.20   -20 LegendNANA
17:00 -10.1 -11.6 88 7 28   100.20   -19 LegendNANA
18:00 -10.1 -11.8 87 6 26   100.19   -19 LegendNANA
19:00 -10.5 -12.2 88 5 25   100.15   -19 LegendNANA
20:00 -10.4 -12.1 88 4 23   100.18   -19 LegendNANA
21:00 -10.4 -12.1 87 3 27   100.22   -20 LegendNANA
22:00 -10.7 -12.5 86 4 23   100.27   -19 LegendNANA
23:00 -11.6 -13.6 85 5 26   100.31   -21 LegendNANA

Notes on Data Quality.

Legend

  • E = Estimated
  • M = Missing
  • NA = Not Available
  • ‡ = Partner data that is not subject to review by the National Climate Archives
Date modified: